| time (UTC) | temp F | wind direction | speed knots | gust knots | rain 1hr in | rain 24hr in | rain mn in | humidity % | barometer mb |
| 20260504034624 | 59 | 320 | 0.0 | 0.0 | 0.00 | 0.01 | 0.01 | 50 | 1007.2 |
| 20260504034120 | 60 | 330 | 0.0 | 0.0 | 0.00 | 0.01 | 0.01 | 47 | 1007.4 |
| 20260504033618 | 61 | 319 | 0.0 | 0.0 | 0.00 | 0.01 | 0.01 | 44 | 1007.3 |
| 20260504033115 | 61 | 313 | 0.0 | 0.9 | 0.00 | 0.01 | 0.01 | 44 | 1007.4 |
| 20260504032612 | 61 | 333 | 0.9 | 0.9 | 0.00 | 0.01 | 0.01 | 46 | 1007.3 |
| 20260504032109 | 61 | 316 | 0.0 | 0.0 | 0.00 | 0.01 | 0.01 | 44 | 1007.2 |
| 20260504031606 | 62 | 313 | 1.7 | 1.7 | 0.00 | 0.01 | 0.01 | 42 | 1007.4 |
| 20260504031102 | 62 | 325 | 0.9 | 0.9 | 0.00 | 0.01 | 0.01 | 44 | 1007.4 |
| 20260504030559 | 63 | 316 | 0.0 | 0.0 | 0.00 | 0.01 | 0.01 | 41 | 1007.4 |
| 20260504030055 | 64 | 313 | 0.9 | 1.7 | 0.00 | 0.01 | 0.01 | 40 | 1007.4 |
| 20260504025553 | 64 | 315 | 0.9 | 0.9 | 0.00 | 0.01 | 0.01 | 38 | 1007.3 |
| 20260504025049 | 65 | 293 | 0.9 | 0.9 | 0.00 | 0.01 | 0.01 | 37 | 1007.4 |
| 20260504024547 | 65 | 295 | 0.9 | 0.9 | 0.00 | 0.01 | 0.01 | 37 | 1007.2 |
| 20260504024043 | 65 | 316 | 0.9 | 1.7 | 0.00 | 0.01 | 0.01 | 37 | 1007.2 |
| 20260504023540 | 65 | 297 | 2.6 | 2.6 | 0.00 | 0.01 | 0.01 | 37 | 1007.2 |
| 20260504023036 | 65 | 277 | 2.6 | 3.5 | 0.00 | 0.01 | 0.01 | 37 | 1007.1 |
| 20260504022532 | 66 | 282 | 2.6 | 2.6 | 0.00 | 0.01 | 0.01 | 37 | 1007.1 |
| 20260504022028 | 66 | 322 | 2.6 | 2.6 | 0.00 | 0.01 | 0.01 | 37 | 1007.1 |
| 20260504021526 | 66 | 304 | 2.6 | 3.5 | 0.00 | 0.01 | 0.01 | 36 | 1007.1 |
| 20260504021023 | 66 | 285 | 1.7 | 1.7 | 0.00 | 0.01 | 0.01 | 36 | 1007.0 |
| 20260504020520 | 66 | 270 | 3.5 | 5.2 | 0.00 | 0.01 | 0.01 | 36 | 1007.0 |
| 20260504020016 | 67 | 281 | 1.7 | 2.6 | 0.00 | 0.01 | 0.01 | 35 | 1006.9 |
| 20260504015513 | 67 | 311 | 0.9 | 1.7 | 0.00 | 0.01 | 0.01 | 35 | 1006.8 |
| 20260504015009 | 68 | 263 | 3.5 | 3.5 | 0.00 | 0.01 | 0.01 | 35 | 1006.6 |
| 20260504014505 | 68 | 302 | 1.7 | 2.6 | 0.00 | 0.01 | 0.01 | 34 | 1006.6 |
| 20260504014002 | 68 | 294 | 2.6 | 2.6 | 0.00 | 0.01 | 0.01 | 35 | 1006.6 |
| 20260504013500 | 68 | 259 | 0.9 | 1.7 | 0.00 | 0.01 | 0.01 | 34 | 1006.5 |
| 20260504012955 | 69 | 278 | 1.7 | 2.6 | 0.00 | 0.01 | 0.01 | 34 | 1006.6 |
| 20260504012454 | 69 | 311 | 1.7 | 2.6 | 0.00 | 0.01 | 0.01 | 33 | 1006.3 |
| 20260504011952 | 69 | 296 | 1.7 | 3.5 | 0.00 | 0.01 | 0.01 | 33 | 1006.4 |
| 20260504011448 | 69 | 298 | 3.5 | 5.2 | 0.00 | 0.01 | 0.01 | 33 | 1006.4 |
| 20260504010944 | 70 | 305 | 3.5 | 3.5 | 0.00 | 0.01 | 0.01 | 33 | 1006.4 |
| 20260504010440 | 70 | 309 | 1.7 | 1.7 | 0.00 | 0.01 | 0.01 | 32 | 1006.2 |
| 20260504005936 | 71 | 284 | 1.7 | 2.6 | 0.00 | 0.01 | 0.01 | 31 | 1006.0 |
| 20260504005433 | 71 | 277 | 3.5 | 3.5 | 0.00 | 0.01 | 0.01 | 31 | 1006.1 |
| 20260504004930 | 72 | 274 | 3.5 | 3.5 | 0.00 | 0.01 | 0.01 | 30 | 1006.2 |
| 20260504004428 | 72 | 307 | 2.6 | 3.5 | 0.00 | 0.01 | 0.01 | 30 | 1006.1 |
| 20260504003925 | 73 | 285 | 2.6 | 3.5 | 0.00 | 0.01 | 0.01 | 29 | 1006.2 |
| 20260504003421 | 73 | 294 | 2.6 | 3.5 | 0.00 | 0.01 | 0.01 | 29 | 1006.0 |
| 20260504002918 | 73 | 273 | 2.6 | 2.6 | 0.00 | 0.01 | 0.01 | 29 | 1006.1 |
| 20260504002415 | 74 | 288 | 1.7 | 1.7 | 0.00 | 0.01 | 0.01 | 29 | 1006.0 |
| 20260504001913 | 74 | 283 | 2.6 | 3.5 | 0.00 | 0.01 | 0.01 | 28 | 1006.1 |
| 20260504001410 | 74 | 340 | 5.2 | 7.0 | 0.00 | 0.01 | 0.01 | 28 | 1006.0 |
| 20260504000906 | 75 | 297 | 3.5 | 5.2 | 0.00 | 0.01 | 0.01 | 28 | 1005.9 |
| 20260504000403 | 75 | 279 | 5.2 | 7.8 | 0.00 | 0.01 | 0.01 | 28 | 1006.0 |
| 20260503235901 | 75 | 321 | 4.3 | 5.2 | 0.00 | 0.01 | 0.01 | 28 | 1005.7 |
| 20260503235359 | 75 | 276 | 5.2 | 6.1 | 0.00 | 0.01 | 0.01 | 28 | 1005.9 |
| 20260503234856 | 75 | 279 | 4.3 | 7.0 | 0.00 | 0.01 | 0.01 | 28 | 1005.9 |
| 20260503234353 | 75 | 285 | 3.5 | 3.5 | 0.00 | 0.01 | 0.01 | 28 | 1005.8 |
| 20260503233851 | 75 | 268 | 3.5 | 7.0 | 0.00 | 0.01 | 0.01 | 27 | 1005.7 |
| 20260503233347 | 76 | 308 | 6.1 | 7.8 | 0.00 | 0.01 | 0.01 | 27 | 1005.9 |
| 20260503232843 | 76 | 340 | 5.2 | 7.8 | 0.00 | 0.01 | 0.01 | 28 | 1005.7 |
| 20260503232341 | 75 | 277 | 11.3 | 18.2 | 0.00 | 0.01 | 0.01 | 27 | 1005.9 |
| 20260503231839 | 76 | 285 | 3.5 | 3.5 | 0.00 | 0.01 | 0.01 | 28 | 1005.8 |
| 20260503231336 | 76 | 325 | 4.3 | 6.1 | 0.00 | 0.01 | 0.01 | 28 | 1005.9 |
| 20260503230832 | 76 | 269 | 3.5 | 5.2 | 0.00 | 0.01 | 0.01 | 27 | 1005.8 |
| 20260503230329 | 76 | 297 | 7.0 | 7.8 | 0.00 | 0.01 | 0.01 | 27 | 1005.8 |
| 20260503225826 | 76 | 283 | 5.2 | 7.8 | 0.00 | 0.01 | 0.01 | 28 | 1005.9 |
| 20260503225322 | 76 | 288 | 6.1 | 7.8 | 0.00 | 0.01 | 0.01 | 28 | 1005.8 |
| 20260503224818 | 77 | 270 | 6.1 | 7.0 | 0.00 | 0.01 | 0.01 | 28 | 1005.9 |
| 20260503224316 | 77 | 268 | 5.2 | 7.0 | 0.00 | 0.01 | 0.01 | 27 | 1005.9 |
| 20260503223814 | 77 | 273 | 3.5 | 5.2 | 0.00 | 0.01 | 0.01 | 28 | 1005.8 |
| 20260503223311 | 76 | 335 | 4.3 | 6.1 | 0.00 | 0.01 | 0.01 | 28 | 1005.7 |
| 20260503222806 | 76 | 285 | 5.2 | 7.8 | 0.00 | 0.01 | 0.01 | 28 | 1005.7 |
| 20260503222305 | 76 | 348 | 3.5 | 5.2 | 0.00 | 0.01 | 0.01 | 28 | 1005.8 |
| 20260503221803 | 76 | 280 | 4.3 | 6.1 | 0.00 | 0.01 | 0.01 | 26 | 1006.0 |
| 20260503221301 | 76 | 109 | 3.5 | 7.0 | 0.00 | 0.01 | 0.01 | 27 | 1005.9 |
| 20260503220757 | 76 | 314 | 9.6 | 11.3 | 0.00 | 0.01 | 0.01 | 27 | 1005.9 |
| 20260503220254 | 76 | 248 | 3.5 | 3.5 | 0.00 | 0.01 | 0.01 | 26 | 1005.9 |
| 20260503215751 | 76 | 308 | 7.0 | 8.7 | 0.00 | 0.01 | 0.01 | 27 | 1005.7 |
| 20260503215248 | 76 | 250 | 5.2 | 7.0 | 0.00 | 0.01 | 0.01 | 29 | 1005.7 |
| 20260503214746 | 76 | 305 | 7.0 | 9.6 | 0.00 | 0.01 | 0.01 | 29 | 1005.6 |
| 20260503214242 | 77 | 240 | 6.1 | 7.8 | 0.00 | 0.01 | 0.01 | 29 | 1005.6 |
| 20260503213740 | 76 | 280 | 7.8 | 9.6 | 0.00 | 0.01 | 0.01 | 31 | 1005.8 |
| 20260503213238 | 77 | 244 | 4.3 | 6.1 | 0.00 | 0.01 | 0.01 | 31 | 1005.9 |
| 20260503212734 | 76 | 268 | 5.2 | 8.7 | 0.00 | 0.01 | 0.01 | 32 | 1005.8 |
| 20260503212232 | 76 | 269 | 5.2 | 8.7 | 0.00 | 0.01 | 0.01 | 32 | 1005.7 |
| 20260503211729 | 75 | 290 | 4.3 | 7.0 | 0.00 | 0.01 | 0.01 | 32 | 1006.0 |
| 20260503211225 | 75 | 290 | 4.3 | 6.1 | 0.00 | 0.01 | 0.01 | 33 | 1006.0 |
| 20260503210721 | 75 | 318 | 5.2 | 6.1 | 0.00 | 0.01 | 0.01 | 34 | 1006.2 |
| 20260503210219 | 75 | 63 | 6.1 | 7.8 | 0.00 | 0.01 | 0.01 | 33 | 1006.3 |
| 20260503205714 | 75 | 250 | 9.6 | 11.3 | 0.00 | 0.01 | 0.01 | 33 | 1006.4 |
| 20260503205210 | 75 | 248 | 4.3 | 5.2 | 0.00 | 0.01 | 0.01 | 33 | 1006.4 |
| 20260503204707 | 74 | 241 | 5.2 | 6.1 | 0.00 | 0.01 | 0.01 | 34 | 1006.6 |
| 20260503204205 | 75 | 285 | 5.2 | 6.1 | 0.00 | 0.01 | 0.01 | 34 | 1006.5 |
| 20260503203701 | 74 | 228 | 7.8 | 8.7 | 0.00 | 0.01 | 0.01 | 34 | 1006.6 |
| 20260503203159 | 74 | 312 | 7.8 | 8.7 | 0.00 | 0.01 | 0.01 | 35 | 1006.8 |
| 20260503202656 | 74 | 289 | 3.5 | 6.1 | 0.00 | 0.01 | 0.01 | 36 | 1006.8 |
| 20260503202154 | 73 | 252 | 10.4 | 13.9 | 0.00 | 0.01 | 0.01 | 35 | 1006.9 |
| 20260503201652 | 74 | 239 | 2.6 | 3.5 | 0.00 | 0.01 | 0.01 | 35 | 1006.8 |
| 20260503201149 | 73 | 249 | 6.1 | 7.8 | 0.00 | 0.01 | 0.01 | 36 | 1007.2 |
| 20260503200645 | 73 | 250 | 1.7 | 2.6 | 0.00 | 0.01 | 0.01 | 35 | 1007.0 |
| 20260503200141 | 73 | 348 | 6.1 | 7.8 | 0.00 | 0.01 | 0.01 | 36 | 1007.1 |
| 20260503195638 | 72 | 263 | 8.7 | 9.6 | 0.00 | 0.01 | 0.01 | 36 | 1007.2 |
| 20260503195135 | 72 | 275 | 12.2 | 15.6 | 0.00 | 0.01 | 0.01 | 36 | 1007.4 |
| 20260503194632 | 72 | 241 | 5.2 | 8.7 | 0.00 | 0.01 | 0.01 | 36 | 1007.3 |
| 20260503194127 | 71 | 57 | 3.5 | 5.2 | 0.00 | 0.01 | 0.01 | 37 | 1007.5 |
| 20260503193625 | 71 | 349 | 9.6 | 12.2 | 0.00 | 0.01 | 0.01 | 37 | 1007.4 |
| 20260503193120 | 71 | 257 | 12.2 | 14.8 | 0.00 | 0.01 | 0.01 | 37 | 1007.5 |
| 20260503192616 | 71 | 52 | 12.2 | 20.0 | 0.00 | 0.01 | 0.01 | 37 | 1007.8 |
| 20260503192112 | 70 | 296 | 2.6 | 5.2 | 0.00 | 0.01 | 0.01 | 37 | 1007.6 |
| 20260503191609 | 72 | 282 | 9.6 | 13.0 | 0.00 | 0.01 | 0.01 | 36 | 1007.8 |
| 20260503191106 | 70 | 292 | 3.5 | 5.2 | 0.00 | 0.01 | 0.01 | 37 | 1007.8 |
| 20260503190603 | 70 | 254 | 10.4 | 13.9 | 0.00 | 0.01 | 0.01 | 38 | 1007.6 |
| 20260503190100 | 70 | 255 | 10.4 | 13.0 | 0.00 | 0.01 | 0.01 | 37 | 1007.8 |
| 20260503185556 | 69 | 194 | 7.8 | 9.6 | 0.00 | 0.01 | 0.01 | 37 | 1007.9 |
| 20260503185056 | 69 | 253 | 5.2 | 6.1 | 0.00 | 0.01 | 0.01 | 39 | 1007.9 |
| 20260503184552 | 69 | 318 | 4.3 | 5.2 | 0.00 | 0.01 | 0.01 | 39 | 1008.1 |
| 20260503184049 | 69 | 264 | 4.3 | 5.2 | 0.00 | 0.01 | 0.01 | 39 | 1008.3 |
| 20260503183545 | 69 | 302 | 6.1 | 8.7 | 0.00 | 0.01 | 0.01 | 39 | 1008.4 |
| 20260503183043 | 68 | 276 | 4.3 | 5.2 | 0.00 | 0.01 | 0.01 | 40 | 1008.3 |
| 20260503182541 | 68 | 273 | 6.1 | 7.0 | 0.00 | 0.01 | 0.01 | 39 | 1008.4 |
| 20260503182039 | 67 | 285 | 5.2 | 6.1 | 0.00 | 0.01 | 0.01 | 40 | 1008.5 |
| 20260503181535 | 67 | 44 | 3.5 | 5.2 | 0.00 | 0.01 | 0.01 | 40 | 1008.6 |
| 20260503181032 | 67 | 121 | 3.5 | 6.1 | 0.00 | 0.01 | 0.01 | 40 | 1008.5 |
| 20260503180529 | 67 | 252 | 7.0 | 7.8 | 0.00 | 0.01 | 0.01 | 40 | 1008.7 |
| 20260503180026 | 66 | 298 | 3.5 | 7.8 | 0.00 | 0.01 | 0.01 | 40 | 1008.8 |
| 20260503175524 | 66 | 314 | 8.7 | 12.2 | 0.00 | 0.01 | 0.01 | 41 | 1009.1 |
| 20260503175020 | 65 | 261 | 7.8 | 9.6 | 0.00 | 0.01 | 0.01 | 41 | 1008.8 |
| 20260503174518 | 66 | 133 | 2.6 | 3.5 | 0.00 | 0.01 | 0.01 | 41 | 1009.0 |
| 20260503174014 | 67 | 45 | 5.2 | 7.0 | 0.00 | 0.01 | 0.01 | 40 | 1009.1 |
| 20260503173509 | 65 | 237 | 9.6 | 13.0 | 0.00 | 0.01 | 0.01 | 41 | 1009.2 |
| 20260503173006 | 65 | 349 | 5.2 | 6.1 | 0.00 | 0.01 | 0.01 | 41 | 1009.3 |
| 20260503172504 | 64 | 260 | 11.3 | 14.8 | 0.00 | 0.01 | 0.01 | 42 | 1009.2 |
| 20260503172001 | 65 | 310 | 10.4 | 14.8 | 0.00 | 0.01 | 0.01 | 41 | 1009.3 |
| 20260503171457 | 64 | 229 | 7.8 | 8.7 | 0.00 | 0.01 | 0.01 | 42 | 1009.4 |
| 20260503170954 | 64 | 270 | 12.2 | 16.5 | 0.00 | 0.01 | 0.01 | 42 | 1009.5 |
| 20260503170450 | 63 | 250 | 11.3 | 13.9 | 0.00 | 0.01 | 0.01 | 42 | 1009.5 |
| 20260503150843 | 56 | 215 | 11.3 | 12.2 | 0.00 | 0.01 | 0.01 | 53 | 1010.9 |
| 20260503150339 | 56 | 214 | 7.8 | 8.7 | 0.00 | 0.01 | 0.01 | 55 | 1011.1 |
| 20260503140303 | 53 | 195 | 7.8 | 11.3 | 0.00 | 0.01 | 0.01 | 61 | 1011.1 |
| 20260503131233 | 49 | 190 | 3.5 | 5.2 | 0.00 | 0.00 | 0.00 | 70 | 1013.0 |
| 20260503130730 | 49 | 217 | 3.5 | 6.1 | 0.00 | 0.00 | 0.00 | 70 | 1013.2 |
| 20260503130227 | 49 | 209 | 2.6 | 2.6 | 0.00 | 0.00 | 0.00 | 71 | 1013.6 |
| 20260503120153 | 49 | 208 | 3.5 | 3.5 | 0.00 | 0.00 | 0.00 | 64 | 1014.2 |
| 20260503110621 | 48 | 249 | 2.6 | 2.6 | 0.00 | 0.00 | 0.00 | 68 | 1014.4 |
| 20260503110118 | 48 | 306 | 0.9 | 0.9 | 0.00 | 0.00 | 0.00 | 70 | 1014.6 |
| 20260503090508 | 48 | 257 | 3.5 | 5.2 | 0.00 | 0.00 | 0.00 | 58 | 1014.9 |
| 20260503081428 | 47 | 223 | 2.6 | 2.6 | 0.00 | 0.00 | 0.00 | 58 | 1014.9 |
| 20260503080925 | 47 | 250 | 2.6 | 3.5 | 0.00 | 0.00 | 0.00 | 58 | 1015.1 |
| 20260503080422 | 47 | 236 | 1.7 | 2.6 | 0.00 | 0.00 | 0.00 | 58 | 1015.1 |
| 20260503072858 | 46 | 309 | 1.7 | 1.7 | 0.00 | 0.00 | 0.00 | 58 | 1014.9 |
| 20260503072355 | 46 | 265 | 1.7 | 1.7 | 0.00 | 0.00 | 0.00 | 58 | 1015.0 |
| 20260503071851 | 46 | 279 | 1.7 | 1.7 | 0.00 | 0.00 | 0.00 | 58 | 1015.0 |
| 20260503071349 | 46 | 228 | 1.7 | 1.7 | 0.00 | 0.00 | 0.00 | 58 | 1015.0 |
| 20260503070844 | 46 | 274 | 1.7 | 1.7 | 0.00 | 0.00 | 0.00 | 57 | 1015.1 |
| 20260503070343 | 46 | 303 | 1.7 | 1.7 | 0.00 | 0.00 | 0.00 | 57 | 1015.1 |
| 20260503060308 | 47 | 277 | 0.9 | 1.7 | 0.00 | 0.00 | 0.00 | 56 | 1015.7 |
| 20260503054755 | 47 | 276 | 1.7 | 1.7 | 0.00 | 0.00 | 0.00 | 55 | 1015.8 |
| 20260503054251 | 47 | 227 | 1.7 | 1.7 | 0.00 | 0.00 | 0.00 | 54 | 1015.7 |
| 20260503053749 | 47 | 283 | 2.6 | 3.5 | 0.00 | 0.00 | 0.00 | 54 | 1015.7 |
| 20260503053248 | 47 | 269 | 3.5 | 3.5 | 0.00 | 0.00 | 0.00 | 54 | 1015.9 |
| 20260503052744 | 47 | 231 | 1.7 | 2.6 | 0.00 | 0.00 | 0.00 | 55 | 1015.8 |
| 20260503052241 | 47 | 213 | 3.5 | 3.5 | 0.00 | 0.00 | 0.00 | 54 | 1015.8 |
| 20260503051736 | 48 | 222 | 3.5 | 3.5 | 0.00 | 0.00 | 0.00 | 54 | 1015.8 |
| 20260503051234 | 48 | 209 | 2.6 | 2.6 | 0.00 | 0.00 | 0.00 | 54 | 1015.8 |
| 20260503050730 | 48 | 289 | 3.5 | 5.2 | 0.00 | 0.00 | 0.00 | 54 | 1015.9 |
| 20260503050226 | 48 | 225 | 2.6 | 3.5 | 0.00 | 0.00 | 0.00 | 53 | 1015.9 |
| 20260503045724 | 48 | 223 | 3.5 | 3.5 | 0.00 | 0.00 | 0.00 | 53 | 1015.8 |
| 20260503045222 | 48 | 228 | 1.7 | 2.6 | 0.00 | 0.00 | 0.00 | 53 | 1015.9 |
| 20260503044718 | 48 | 245 | 3.5 | 5.2 | 0.00 | 0.00 | 0.00 | 52 | 1016.1 |
| 20260503044216 | 48 | 258 | 1.7 | 2.6 | 0.00 | 0.00 | 0.00 | 52 | 1016.1 |
| 20260503043712 | 48 | 224 | 1.7 | 1.7 | 0.00 | 0.00 | 0.00 | 52 | 1016.1 |
| 20260503043210 | 48 | 310 | 1.7 | 2.6 | 0.00 | 0.00 | 0.00 | 51 | 1016.0 |
| 20260503042705 | 49 | 276 | 2.6 | 3.5 | 0.00 | 0.00 | 0.00 | 51 | 1016.3 |
| 20260503042202 | 49 | 243 | 1.7 | 2.6 | 0.00 | 0.00 | 0.00 | 50 | 1016.2 |
| 20260503041658 | 49 | 245 | 3.5 | 5.2 | 0.00 | 0.00 | 0.00 | 50 | 1016.1 |
| 20260503041156 | 49 | 245 | 4.3 | 6.1 | 0.00 | 0.00 | 0.00 | 49 | 1016.3 |
| 20260503040653 | 49 | 242 | 3.5 | 5.2 | 0.00 | 0.00 | 0.00 | 49 | 1016.2 |
| 20260503040151 | 49 | 251 | 2.6 | 2.6 | 0.00 | 0.00 | 0.00 | 49 | 1016.3 |
| 20260503035647 | 49 | 247 | 1.7 | 2.6 | 0.00 | 0.00 | 0.00 | 49 | 1016.5 |
| 20260503035145 | 49 | 315 | 1.7 | 2.6 | 0.00 | 0.00 | 0.00 | 49 | 1016.5 |